SCP
0 0 0 0 0 0 0 0 0 0 0 0 0 0 0 0 0 0 0 0 0 0
0 0 0 0 0 0 0 0 0 0 0 0 0 0 0 0 0 0 0 0 0 0
0 0 0 0 0 0 0 0 0 0 0 0 0 0 0 0 0 0 0 0 0 0
0 0 0 0 0 0 0 0 0 0 0 0 0 0 0 0 0 0 0 0 0 0
0 0 0 0 0 0 0 0 0 0 0 0 0 0 0 0 0 0 0 0 0 0
0 0 0 0 0 0 0 0 0 0 0 0 0 0 0 0 0 0 0 0 0 0
0 0 0 0 0 0 0 0 0 0 0 0 0 0 0 0 0 0 0 0 0 0
0 0 0 0 0 0 0 0 0 0 0 0 0 0 0 0 0 0 0 0 0 0
0 0 0 0 0 0 0 0 0 0 0 0 0 0 0 0 0 0 0 0 0 0
0 0 0 0 0 0 0 0 0 0 0 0 0 0 0 0 0 0 0 0 0 0
0 0 0 0 0 0 0 0 0 0 0 0 0 0 0 0 0 0 0 0 0 0
0 0 0 0 0 0 0 0 0 0 0 0 0 0 0 0 0 0 0 0 0 0
0 0 0 0 0 0 0 0 0 0 0 0 0 0 0 0 0 0 0 0 0 0
0 0 0 0 0 0 0 0 0 0 0 0 0 0 0 0 0 0 0 0 0 0
Wind_Speed_500mb
72 67 63 60 58 53 50 48 45 44 44 43 41 37 35 35 35 36 35 33 32 32
71 71 68 61 56 51 47 44 38 36 36 36 34 32 32 32 30 30 29 29 31 34
56 60 58 53 48 44 40 36 35 35 35 32 31 30 29 27 26 26 27 28 29 31
40 39 39 38 40 40 39 38 37 35 32 30 28 27 26 25 24 24 24 25 28 31
34 33 36 39 39 40 40 40 38 34 31 28 27 26 26 24 23 23 26 29 32 35
32 35 38 40 42 42 43 41 38 36 35 35 33 31 28 28 28 28 29 31 35 39
40 41 43 45 46 46 46 45 45 45 44 40 37 35 35 35 35 34 33 36 42 46
49 50 51 51 51 50 51 52 52 51 48 44 43 43 41 40 40 42 43 44 47 51
58 59 61 58 57 57 57 58 58 56 54 51 50 48 47 47 47 48 49 51 53 59
62 66 67 65 65 64 65 65 63 62 59 57 55 52 52 52 53 54 54 57 64 71
61 63 69 70 70 70 68 67 67 65 62 61 58 54 52 54 57 60 64 69 75 82
61 63 63 66 69 71 71 69 67 65 62 61 59 56 55 57 62 69 76 79 83 94
55 58 60 62 64 67 67 66 64 62 60 59 56 55 58 63 67 74 78 90 98 94
40 42 46 49 52 56 58 58 56 54 54 55 58 61 64 67 79 86 90 89 90 90
Wind_Direction_500mb
239 239 240 239 240 242 242 245 243 240 238 239 242 244 251 258 264 270 277 284 288 290
239 240 239 238 236 238 240 240 238 232 229 231 236 244 252 256 261 268 277 284 288 289
238 236 233 233 237 239 238 234 227 222 224 230 237 243 249 257 266 274 284 290 294 297
229 227 228 233 235 232 228 222 219 222 227 230 237 244 253 263 273 285 296 304 309 314
220 226 235 231 224 219 218 219 223 223 225 233 243 251 260 271 283 292 299 305 310 315
234 237 232 226 224 223 225 227 225 226 233 238 243 251 260 269 276 282 290 299 306 312
245 244 238 232 231 233 234 230 228 231 236 240 245 252 258 262 266 271 278 288 296 303
252 251 248 244 240 240 238 236 236 238 241 243 247 250 251 256 261 268 276 286 295 302
257 256 254 250 248 247 244 242 242 244 245 246 247 250 254 259 264 270 277 284 291 297
263 261 259 254 251 250 248 247 247 247 247 247 248 250 255 262 269 276 283 288 291 293
258 256 254 253 251 250 249 249 248 248 249 251 254 257 261 266 274 282 287 289 292 294
255 256 251 249 250 249 247 247 248 249 251 253 257 264 269 274 279 283 286 289 291 293
257 253 252 248 245 244 244 245 247 249 253 257 264 271 276 279 282 284 288 289 289 288
254 250 248 246 241 239 240 243 248 255 261 267 271 275 279 282 288 284 281 284 291 295
Wind_Speed_850mb
72 67 63 60 58 53 50 48 45 44 44 43 41 37 35 35 35 36 35 33 32 32
71 71 68 61 56 51 47 44 38 36 36 36 34 32 32 32 30 30 29 29 31 34
56 60 58 53 48 44 40 36 35 35 35 32 31 30 29 27 26 26 27 28 29 31
40 39 39 38 40 40 39 38 37 35 32 30 28 27 26 25 24 24 24 25 28 31
34 33 36 39 39 40 40 40 38 34 31 28 27 26 26 24 23 23 26 29 32 35
32 35 38 40 42 42 43 41 38 36 35 35 33 31 28 28 28 28 29 31 35 39
40 41 43 45 46 46 46 45 45 45 44 40 37 35 35 35 35 34 33 36 42 46
49 50 51 51 51 50 51 52 52 51 48 44 43 43 41 40 40 42 43 44 47 51
58 59 61 58 57 57 57 58 58 56 54 51 50 48 47 47 47 48 49 51 53 59
62 66 67 65 65 64 65 65 63 62 59 57 55 52 52 52 53 54 54 57 64 71
61 63 69 70 70 70 68 67 67 65 62 61 58 54 52 54 57 60 64 69 75 82
61 63 63 66 69 71 71 69 67 65 62 61 59 56 55 57 62 69 76 79 83 94
55 58 60 62 64 67 67 66 64 62 60 59 56 55 58 63 67 74 78 90 98 94
40 42 46 49 52 56 58 58 56 54 54 55 58 61 64 67 79 86 90 89 90 90
Wind_Direction_850mb
239 239 240 239 240 242 242 245 243 240 238 239 242 244 251 258 264 270 277 284 288 290
239 240 239 238 236 238 240 240 238 232 229 231 236 244 252 256 261 268 277 284 288 289
238 236 233 233 237 239 238 234 227 222 224 230 237 243 249 257 266 274 284 290 294 297
229 227 228 233 235 232 228 222 219 222 227 230 237 244 253 263 273 285 296 304 309 314
220 226 235 231 224 219 218 219 223 223 225 233 243 251 260 271 283 292 299 305 310 315
234 237 232 226 224 223 225 227 225 226 233 238 243 251 260 269 276 282 290 299 306 312
245 244 238 232 231 233 234 230 228 231 236 240 245 252 258 262 266 271 278 288 296 303
252 251 248 244 240 240 238 236 236 238 241 243 247 250 251 256 261 268 276 286 295 302
257 256 254 250 248 247 244 242 242 244 245 246 247 250 254 259 264 270 277 284 291 297
263 261 259 254 251 250 248 247 247 247 247 247 248 250 255 262 269 276 283 288 291 293
258 256 254 253 251 250 249 249 248 248 249 251 254 257 261 266 274 282 287 289 292 294
255 256 251 249 250 249 247 247 248 249 251 253 257 264 269 274 279 283 286 289 291 293
257 253 252 248 245 244 244 245 247 249 253 257 264 271 276 279 282 284 288 289 289 288
254 250 248 246 241 239 240 243 248 255 261 267 271 275 279 282 288 284 281 284 291 295